This is the latest recevied weather packets stored in our database for station/object W4OTS. If no packets are shown the sender has not sent any weather packets the latest 10 day(s).
| Time | Temp. | Humidity | Pressure | Rain* | Wind** | Luminosity | Snow |
|---|---|---|---|---|---|---|---|
| 1777489453 | 24.44° C | 72% | 1011.2 hPa | 0 mm | - | 102 W/m² | - |
| 1777489149 | 24.44° C | 76% | 1011.2 hPa | 0 mm | - | 152 W/m² | - |
| 1777488847 | 24.44° C | 75% | 1011.2 hPa | 0 mm | - | 139 W/m² | - |
| 1777488544 | 25° C | 74% | 1011.4 hPa | 0 mm | - | 114 W/m² | - |
| 1777488242 | 25° C | 74% | 1011.4 hPa | 0 mm | - | 205 W/m² | - |
| 1777487940 | 25° C | 72% | 1011.4 hPa | 0 mm | - | 141 W/m² | - |
| 1777487636 | 25° C | 74% | 1011.9 hPa | 0 mm | - | 644 W/m² | - |
| 1777487334 | 25° C | 73% | 1011.8 hPa | 0 mm | - | 688 W/m² | - |
| 1777487031 | 24.44° C | 75% | 1012.1 hPa | 0 mm | - | 657 W/m² | - |
| 1777486727 | 24.44° C | 76% | 1012.2 hPa | 0 mm | - | 701 W/m² | - |
| 1777486425 | 24.44° C | 73% | 1012.2 hPa | 0 mm | - | 655 W/m² | - |
| 1777486122 | 25° C | 73% | 1012.2 hPa | 0 mm | - | 633 W/m² | - |
| 1777485819 | 25° C | 76% | 1012.3 hPa | 0 mm | - | 184 W/m² | - |
| 1777485515 | 24.44° C | 77% | 1012.6 hPa | 0 mm | - | 647 W/m² | - |
| 1777485211 | 24.44° C | 76% | 1012.6 hPa | 0 mm | - | 689 W/m² | - |
| 1777484907 | 25° C | 75% | 1012.7 hPa | 0 mm | - | 682 W/m² | - |
| 1777484605 | 23.89° C | 77% | 1012.9 hPa | 0 mm | - | 704 W/m² | - |
| 1777484301 | 23.33° C | 79% | 1012.9 hPa | 0 mm | - | 732 W/m² | - |
| 1777483997 | 23.33° C | 79% | 1013.1 hPa | 0 mm | - | 235 W/m² | - |
| 1777483694 | 23.33° C | 81% | 1013.1 hPa | 0 mm | - | 740 W/m² | - |
| 1777483389 | 23.33° C | 78% | 1013.1 hPa | 0 mm | - | 593 W/m² | - |
| 1777483084 | 23.33° C | 78% | 1013.3 hPa | 0 mm | - | 789 W/m² | - |
| 1777482782 | 22.78° C | 81% | 1013.2 hPa | 0 mm | - | 874 W/m² | - |
| 1777482477 | 22.22° C | 81% | 1013.5 hPa | 0 mm | - | 381 W/m² | - |
| 1777482175 | 22.22° C | 83% | 1013.6 hPa | 0 mm | - | 217 W/m² | - |
* Rain latest hour (hover to see other rain measurements)
** Current wind speed in m/s (hover to see current wind gust speed)